User: anonymous   Login
Location: ????????
(55.0097°N, 38.5678°E)
Time: 19:16:50
(UTC+00:00)
Language:

FENGYUN 3A - Orbit

View from above orbital plane
View from above orbital plane
View from above satellite
View from above satellite

Ground track
Ground track

The orbit data is extracted from the following two-line orbital elements,

1 32958U 08026A   24166.56509503  .00000213  00000-0  12233-3 0  9995
2 32958  98.6040 113.7600 0009895  81.1403 279.0893 14.19104376831479
Epoch (UTC): 14 June 2024 13:33:44
Eccentricity: 0.0009895
inclination: 98.6040°
perigee height: 821 km
apogee height: 835 km
right ascension of ascending node: 113.7600°
argument of perigee: 81.1403°
revolutions per day: 14.19104376
mean anomaly at epoch: 279.0893°
orbit number at epoch: 83147

The dashed part of the orbit path shows where the satellite is in the earth's shadow,  

DLR